Year,Month,Day,Hour,Minute,Value (Times are PST for windgust in km/hr)
2010,06,04,00,00,4.80
2010,06,04,00,01,6.40
2010,06,04,00,02,3.20
2010,06,04,00,04,3.20
2010,06,04,00,05,3.20
2010,06,04,00,06,1.60
2010,06,04,00,07,3.20
2010,06,04,00,08,1.60
2010,06,04,00,09,1.60
2010,06,04,00,10,1.60
2010,06,04,00,11,1.60
2010,06,04,00,12,1.60
2010,06,04,00,13,1.60
2010,06,04,00,15,3.20
2010,06,04,00,16,3.20
2010,06,04,00,17,1.60
2010,06,04,00,18,4.80
2010,06,04,00,19,4.80
2010,06,04,00,20,6.40
2010,06,04,00,21,4.80
2010,06,04,00,22,3.20
2010,06,04,00,23,1.60
2010,06,04,00,24,3.20
2010,06,04,00,25,1.60
2010,06,04,00,27,1.60
2010,06,04,00,28,1.60
2010,06,04,00,29,3.20
2010,06,04,00,30,1.60
2010,06,04,00,31,1.60
2010,06,04,00,32,1.60
2010,06,04,00,33,4.80
2010,06,04,00,34,4.80
2010,06,04,00,35,4.80
2010,06,04,00,36,3.20
2010,06,04,00,37,3.20
2010,06,04,00,38,1.60
2010,06,04,00,48,1.60
2010,06,04,00,52,1.60
2010,06,04,01,45,3.20
2010,06,04,01,46,1.60
2010,06,04,01,48,1.60
2010,06,04,01,49,1.60
2010,06,04,01,52,1.60
2010,06,04,02,21,1.60
2010,06,04,02,22,3.20
2010,06,04,02,23,1.60
2010,06,04,02,24,1.60
2010,06,04,02,26,1.60
2010,06,04,02,27,1.60
2010,06,04,03,16,1.60
2010,06,04,03,20,3.20
2010,06,04,03,21,1.60
2010,06,04,03,22,1.60
2010,06,04,03,42,3.20
2010,06,04,03,43,1.60
2010,06,04,03,49,3.20
2010,06,04,03,50,1.60
2010,06,04,03,51,1.60
2010,06,04,03,53,1.60
2010,06,04,03,54,1.60
2010,06,04,03,55,1.60
2010,06,04,03,56,3.20
2010,06,04,03,57,1.60
2010,06,04,04,07,1.60
2010,06,04,04,10,1.60
2010,06,04,04,13,1.60
2010,06,04,04,26,1.60
2010,06,04,04,30,1.60
2010,06,04,04,31,1.60
2010,06,04,04,33,1.60
2010,06,04,04,37,3.20
2010,06,04,04,38,3.20
2010,06,04,04,39,3.20
2010,06,04,04,40,3.20
2010,06,04,04,41,3.20
2010,06,04,04,42,1.60
2010,06,04,04,43,1.60
2010,06,04,04,44,1.60
2010,06,04,04,45,6.40
2010,06,04,04,46,8.10
2010,06,04,04,47,1.60
2010,06,04,04,50,4.80
2010,06,04,04,51,3.20
2010,06,04,04,52,4.80
2010,06,04,04,53,6.40
2010,06,04,04,54,6.40
2010,06,04,04,55,3.20
2010,06,04,04,56,3.20
2010,06,04,04,57,3.20
2010,06,04,04,58,3.20
2010,06,04,04,59,6.40
2010,06,04,05,00,4.80
2010,06,04,05,01,4.80
2010,06,04,05,02,4.80
2010,06,04,05,03,4.80
2010,06,04,05,04,6.40
2010,06,04,05,05,4.80
2010,06,04,05,06,3.20
2010,06,04,05,09,1.60
2010,06,04,05,11,1.60
2010,06,04,05,14,1.60
2010,06,04,05,15,4.80
2010,06,04,05,16,4.80
2010,06,04,05,17,1.60
2010,06,04,05,18,4.80
2010,06,04,05,19,1.60
2010,06,04,05,20,1.60
2010,06,04,05,21,1.60
2010,06,04,05,23,3.20
2010,06,04,05,24,3.20
2010,06,04,05,25,4.80
2010,06,04,05,26,4.80
2010,06,04,05,27,1.60
2010,06,04,05,28,1.60
2010,06,04,05,29,3.20
2010,06,04,05,30,3.20
2010,06,04,05,32,3.20
2010,06,04,05,33,4.80
2010,06,04,05,36,3.20
2010,06,04,05,37,1.60
2010,06,04,05,38,1.60
2010,06,04,05,39,3.20
2010,06,04,05,40,1.60
2010,06,04,05,41,1.60
2010,06,04,05,42,3.20
2010,06,04,05,43,4.80
2010,06,04,05,44,4.80
2010,06,04,05,45,3.20
2010,06,04,05,46,1.60
2010,06,04,05,47,4.80
2010,06,04,05,48,1.60
2010,06,04,05,53,1.60
2010,06,04,05,54,1.60
2010,06,04,05,58,1.60
2010,06,04,06,02,3.20
2010,06,04,06,05,3.20
2010,06,04,06,10,1.60
2010,06,04,06,11,4.80
2010,06,04,06,12,4.80
2010,06,04,06,13,4.80
2010,06,04,06,14,3.20
2010,06,04,06,15,3.20
2010,06,04,06,16,6.40
2010,06,04,06,17,9.60
2010,06,04,06,18,6.40
2010,06,04,06,19,4.80
2010,06,04,06,20,4.80
2010,06,04,06,21,3.20
2010,06,04,06,22,4.80
2010,06,04,06,23,6.40
2010,06,04,06,24,6.40
2010,06,04,06,25,4.80
2010,06,04,06,26,6.40
2010,06,04,06,27,4.80
2010,06,04,06,28,8.10
2010,06,04,06,29,6.40
2010,06,04,06,30,6.40
2010,06,04,06,31,6.40
2010,06,04,06,32,6.40
2010,06,04,06,33,6.40
2010,06,04,06,34,4.80
2010,06,04,06,37,4.80
2010,06,04,06,38,1.60
2010,06,04,06,39,6.40
2010,06,04,06,40,8.10
2010,06,04,06,41,6.40
2010,06,04,06,42,1.60
2010,06,04,06,43,3.20
2010,06,04,06,44,1.60
2010,06,04,06,45,4.80
2010,06,04,06,46,4.80
2010,06,04,06,47,8.10
2010,06,04,06,48,4.80
2010,06,04,06,49,4.80
2010,06,04,06,50,6.40
2010,06,04,06,51,6.40
2010,06,04,06,52,9.60
2010,06,04,06,53,8.10
2010,06,04,06,54,6.40
2010,06,04,06,55,6.40
2010,06,04,06,56,4.80
2010,06,04,06,57,4.80
2010,06,04,06,58,4.80
2010,06,04,06,59,4.80
2010,06,04,07,00,8.10
2010,06,04,07,01,4.80
2010,06,04,07,02,4.80
2010,06,04,07,03,1.60
2010,06,04,07,04,6.40
2010,06,04,07,05,1.60
2010,06,04,07,06,1.60
2010,06,04,07,07,4.80
2010,06,04,07,08,6.40
2010,06,04,07,09,6.40
2010,06,04,07,10,6.40
2010,06,04,07,11,4.80
2010,06,04,07,12,4.80
2010,06,04,07,13,3.20
2010,06,04,07,15,1.60
2010,06,04,07,16,4.80
2010,06,04,07,17,1.60
2010,06,04,07,18,1.60
2010,06,04,07,19,3.20
2010,06,04,07,20,3.20
2010,06,04,07,21,3.20
2010,06,04,07,22,4.80
2010,06,04,07,23,6.40
2010,06,04,07,24,4.80
2010,06,04,07,25,4.80
2010,06,04,07,26,3.20
2010,06,04,07,28,1.60
2010,06,04,07,30,1.60
2010,06,04,07,31,4.80
2010,06,04,07,32,4.80
2010,06,04,07,33,4.80
2010,06,04,07,34,1.60
2010,06,04,07,35,3.20
2010,06,04,07,36,4.80
2010,06,04,07,37,1.60
2010,06,04,07,38,1.60
2010,06,04,07,39,3.20
2010,06,04,07,40,1.60
2010,06,04,07,42,3.20
2010,06,04,07,44,1.60
2010,06,04,07,45,1.60
2010,06,04,07,46,4.80
2010,06,04,07,49,6.40
2010,06,04,07,50,6.40
2010,06,04,07,51,4.80
2010,06,04,07,52,6.40
2010,06,04,07,53,8.10
2010,06,04,07,54,6.40
2010,06,04,07,55,1.60
2010,06,04,07,56,3.20
2010,06,04,07,57,4.80
2010,06,04,07,58,8.10
2010,06,04,07,59,8.10
2010,06,04,08,00,4.80
2010,06,04,08,01,6.40
2010,06,04,08,02,6.40
2010,06,04,08,03,6.40
2010,06,04,08,04,8.10
2010,06,04,08,05,3.20
2010,06,04,08,06,4.80
2010,06,04,08,07,4.80
2010,06,04,08,08,3.20
2010,06,04,08,09,4.80
2010,06,04,08,10,3.20
2010,06,04,08,11,8.10
2010,06,04,08,12,8.10
2010,06,04,08,13,6.40
2010,06,04,08,14,9.60
2010,06,04,08,15,8.10
2010,06,04,08,16,6.40
2010,06,04,08,17,8.10
2010,06,04,08,18,6.40
2010,06,04,08,19,4.80
2010,06,04,08,20,8.10
2010,06,04,08,21,9.60
2010,06,04,08,22,8.10
2010,06,04,08,23,6.40
2010,06,04,08,24,8.10
2010,06,04,08,25,6.40
2010,06,04,08,26,6.40
2010,06,04,08,27,8.10
2010,06,04,08,28,8.10
2010,06,04,08,29,8.10
2010,06,04,08,30,8.10
2010,06,04,08,31,8.10
2010,06,04,08,32,8.10
2010,06,04,08,33,8.10
2010,06,04,08,34,8.10
2010,06,04,08,35,8.10
2010,06,04,08,36,8.10
2010,06,04,08,37,8.10
2010,06,04,08,38,8.10
2010,06,04,08,39,4.80
2010,06,04,08,40,8.10
2010,06,04,08,41,9.60
2010,06,04,08,42,8.10
2010,06,04,08,43,8.10
2010,06,04,08,44,3.20
2010,06,04,08,45,6.40
2010,06,04,08,46,8.10
2010,06,04,08,47,8.10
2010,06,04,08,48,8.10
2010,06,04,08,49,4.80
2010,06,04,08,50,3.20
2010,06,04,08,51,3.20
2010,06,04,08,52,3.20
2010,06,04,08,53,1.60
2010,06,04,08,54,3.20
2010,06,04,08,55,8.10
2010,06,04,08,56,6.40
2010,06,04,08,57,6.40
2010,06,04,08,58,9.60
2010,06,04,08,59,8.10
2010,06,04,09,00,6.40
2010,06,04,09,01,9.60
2010,06,04,09,02,6.40
2010,06,04,09,03,6.40
2010,06,04,09,04,8.10
2010,06,04,09,05,8.10
2010,06,04,09,06,3.20
2010,06,04,09,07,4.80
2010,06,04,09,08,3.20
2010,06,04,09,09,8.10
2010,06,04,09,10,8.10
2010,06,04,09,11,6.40
2010,06,04,09,12,8.10
2010,06,04,09,13,8.10
2010,06,04,09,14,8.10
2010,06,04,09,15,9.60
2010,06,04,09,16,8.10
2010,06,04,09,17,6.40
2010,06,04,09,18,6.40
2010,06,04,09,19,8.10
2010,06,04,09,20,8.10
2010,06,04,09,21,4.80
2010,06,04,09,22,4.80
2010,06,04,09,23,9.60
2010,06,04,09,24,11.30
2010,06,04,09,25,9.60
2010,06,04,09,26,9.60
2010,06,04,09,27,11.30
2010,06,04,09,28,9.60
2010,06,04,09,29,8.10
2010,06,04,09,30,11.30
2010,06,04,09,31,9.60
2010,06,04,09,32,11.30
2010,06,04,09,33,9.60
2010,06,04,09,34,11.30
2010,06,04,09,35,9.60
2010,06,04,09,36,9.60
2010,06,04,09,37,16.10
2010,06,04,09,38,9.60
2010,06,04,09,39,9.60
2010,06,04,09,40,11.30
2010,06,04,09,41,11.30
2010,06,04,09,42,9.60
2010,06,04,09,43,9.60
2010,06,04,09,44,14.50
2010,06,04,09,45,17.70
2010,06,04,09,46,11.30
2010,06,04,09,47,8.10
2010,06,04,09,48,11.30
2010,06,04,09,49,9.60
2010,06,04,09,50,11.30
2010,06,04,09,51,11.30
2010,06,04,09,52,16.10
2010,06,04,09,53,14.50
2010,06,04,09,54,14.50
2010,06,04,09,55,16.10
2010,06,04,09,56,9.60
2010,06,04,09,57,11.30
2010,06,04,09,58,17.70
2010,06,04,09,59,11.30
2010,06,04,10,00,11.30
2010,06,04,10,01,17.70
2010,06,04,10,02,16.10
2010,06,04,10,03,16.10
2010,06,04,10,04,11.30
2010,06,04,10,05,11.30
2010,06,04,10,06,14.50
2010,06,04,10,07,11.30
2010,06,04,10,08,6.40
2010,06,04,10,09,8.10
2010,06,04,10,10,11.30
2010,06,04,10,11,11.30
2010,06,04,10,12,12.90
2010,06,04,10,13,14.50
2010,06,04,10,14,14.50
2010,06,04,10,15,9.60
2010,06,04,10,16,14.50
2010,06,04,10,17,14.50
2010,06,04,10,18,17.70
2010,06,04,10,19,11.30
2010,06,04,10,20,17.70
2010,06,04,10,21,17.70
2010,06,04,10,22,16.10
2010,06,04,10,23,14.50
2010,06,04,10,24,9.60
2010,06,04,10,25,11.30
2010,06,04,10,26,14.50
2010,06,04,10,27,11.30
2010,06,04,10,28,14.50
2010,06,04,10,29,17.70
2010,06,04,10,30,11.30
2010,06,04,10,31,14.50
2010,06,04,10,32,16.10
2010,06,04,10,33,17.70
2010,06,04,10,34,17.70
2010,06,04,10,35,17.70
2010,06,04,10,36,17.70
2010,06,04,10,37,17.70
2010,06,04,10,38,17.70
2010,06,04,10,39,12.90
2010,06,04,10,40,9.60
2010,06,04,10,41,11.30
2010,06,04,10,42,14.50
2010,06,04,10,43,6.40
2010,06,04,10,44,16.10
2010,06,04,10,45,14.50
2010,06,04,10,46,9.60
2010,06,04,10,47,11.30
2010,06,04,10,48,11.30
2010,06,04,10,49,11.30
2010,06,04,10,50,16.10
2010,06,04,10,51,12.90
2010,06,04,10,52,11.30
2010,06,04,10,53,11.30
2010,06,04,10,54,19.30
2010,06,04,10,55,11.30
2010,06,04,10,56,17.70
2010,06,04,10,57,8.10
2010,06,04,10,58,8.10
2010,06,04,10,59,8.10
2010,06,04,11,00,16.10
2010,06,04,11,01,17.70
2010,06,04,11,02,16.10
2010,06,04,11,03,14.50
2010,06,04,11,04,19.30
2010,06,04,11,05,16.10
2010,06,04,11,06,20.90
2010,06,04,11,07,16.10
2010,06,04,11,08,8.10
2010,06,04,11,09,16.10
2010,06,04,11,10,19.30
2010,06,04,11,11,17.70
2010,06,04,11,12,16.10
2010,06,04,11,13,8.10
2010,06,04,11,14,11.30
2010,06,04,11,15,12.90
2010,06,04,11,16,11.30
2010,06,04,11,17,9.60
2010,06,04,11,18,11.30
2010,06,04,11,19,11.30
2010,06,04,11,20,8.10
2010,06,04,11,21,16.10
2010,06,04,11,22,14.50
2010,06,04,11,23,16.10
2010,06,04,11,24,14.50
2010,06,04,11,25,17.70
2010,06,04,11,26,16.10
2010,06,04,11,27,12.90
2010,06,04,11,28,19.30
2010,06,04,11,29,16.10
2010,06,04,11,30,17.70
2010,06,04,11,31,19.30
2010,06,04,11,32,19.30
2010,06,04,11,33,20.90
2010,06,04,11,34,22.50
2010,06,04,11,35,20.90
2010,06,04,11,36,22.50
2010,06,04,11,37,24.20
2010,06,04,11,38,22.50
2010,06,04,11,39,25.70
2010,06,04,11,40,24.20
2010,06,04,11,41,27.40
2010,06,04,11,42,30.60
2010,06,04,11,43,27.40
2010,06,04,11,44,25.70
2010,06,04,11,45,22.50
2010,06,04,11,46,22.50
2010,06,04,11,47,16.10
2010,06,04,11,48,17.70
2010,06,04,11,49,17.70
2010,06,04,11,50,19.30
2010,06,04,11,51,22.50
2010,06,04,11,52,20.90
2010,06,04,11,53,24.20
2010,06,04,11,54,29.00
2010,06,04,11,55,24.20
2010,06,04,11,56,27.40
2010,06,04,11,57,25.70
2010,06,04,11,58,25.70
2010,06,04,11,59,27.40
2010,06,04,12,00,24.20
2010,06,04,12,01,27.40
2010,06,04,12,02,29.00
2010,06,04,12,03,25.70
2010,06,04,12,04,29.00
2010,06,04,12,05,22.50
2010,06,04,12,06,24.20
2010,06,04,12,07,25.70
2010,06,04,12,08,27.40
2010,06,04,12,09,27.40
2010,06,04,12,10,20.90
2010,06,04,12,11,24.20
2010,06,04,12,12,25.70
2010,06,04,12,13,25.70
2010,06,04,12,14,22.50
2010,06,04,12,15,25.70
2010,06,04,12,16,25.70
2010,06,04,12,17,25.70
2010,06,04,12,18,20.90
2010,06,04,12,19,30.60
2010,06,04,12,20,24.20
2010,06,04,12,21,29.00
2010,06,04,12,22,27.40
2010,06,04,12,23,22.50
2010,06,04,12,24,17.70
2010,06,04,12,25,25.70
2010,06,04,12,26,14.50
2010,06,04,12,27,20.90
2010,06,04,12,28,20.90
2010,06,04,12,29,29.00
2010,06,04,12,30,20.90
2010,06,04,12,31,27.40
2010,06,04,12,32,32.20
2010,06,04,12,33,29.00
2010,06,04,12,34,14.50
2010,06,04,12,35,16.10
2010,06,04,12,36,22.50
2010,06,04,12,37,25.70
2010,06,04,12,38,25.70
2010,06,04,12,39,24.20
2010,06,04,12,40,19.30
2010,06,04,12,41,27.40
2010,06,04,12,42,32.20
2010,06,04,12,43,33.80
2010,06,04,12,44,25.70
2010,06,04,12,45,17.70
2010,06,04,12,46,20.90
2010,06,04,12,47,27.40
2010,06,04,12,48,19.30
2010,06,04,12,49,22.50
2010,06,04,12,50,27.40
2010,06,04,12,51,22.50
2010,06,04,12,52,22.50
2010,06,04,12,53,29.00
2010,06,04,12,54,24.20
2010,06,04,12,55,14.50
2010,06,04,12,56,17.70
2010,06,04,12,57,30.60
2010,06,04,12,58,27.40
2010,06,04,12,59,17.70
2010,06,04,13,00,27.40
2010,06,04,13,01,29.00
2010,06,04,13,02,25.70
2010,06,04,13,03,14.50
2010,06,04,13,04,14.50
2010,06,04,13,05,29.00
2010,06,04,13,06,20.90
2010,06,04,13,07,27.40
2010,06,04,13,08,29.00
2010,06,04,13,09,24.20
2010,06,04,13,10,25.70
2010,06,04,13,11,27.40
2010,06,04,13,12,29.00
2010,06,04,13,13,25.70
2010,06,04,13,14,16.10
2010,06,04,13,15,19.30
2010,06,04,13,16,29.00
2010,06,04,13,17,35.40
2010,06,04,13,18,35.40
2010,06,04,13,19,16.10
2010,06,04,13,20,24.20
2010,06,04,13,21,19.30
2010,06,04,13,22,30.60
2010,06,04,13,23,32.20
2010,06,04,13,24,29.00
2010,06,04,13,25,24.20
2010,06,04,13,26,27.40
2010,06,04,13,27,24.20
2010,06,04,13,28,25.70
2010,06,04,13,29,24.20
2010,06,04,13,30,27.40
2010,06,04,13,31,32.20
2010,06,04,13,32,29.00
2010,06,04,13,33,33.80
2010,06,04,13,34,38.60
2010,06,04,13,35,29.00
2010,06,04,13,36,29.00
2010,06,04,13,37,32.20
2010,06,04,13,38,32.20
2010,06,04,13,39,38.60
2010,06,04,13,40,33.80
2010,06,04,13,41,32.20
2010,06,04,13,42,38.60
2010,06,04,13,43,25.70
2010,06,04,13,44,29.00
2010,06,04,13,45,24.20
2010,06,04,13,46,33.80
2010,06,04,13,47,25.70
2010,06,04,13,48,25.70
2010,06,04,13,49,30.60
2010,06,04,13,50,24.20
2010,06,04,13,51,32.20
2010,06,04,13,52,33.80
2010,06,04,13,53,27.40
2010,06,04,13,54,33.80
2010,06,04,13,55,25.70
2010,06,04,13,56,25.70
2010,06,04,13,57,27.40
2010,06,04,13,58,33.80
2010,06,04,13,59,30.60
2010,06,04,14,00,17.70
2010,06,04,14,01,37.00
2010,06,04,14,02,32.20
2010,06,04,14,03,38.60
2010,06,04,14,04,37.00
2010,06,04,14,05,29.00
2010,06,04,14,06,30.60
2010,06,04,14,07,14.50
2010,06,04,14,08,20.90
2010,06,04,14,09,19.30
2010,06,04,14,10,24.20
2010,06,04,14,11,33.80
2010,06,04,14,12,32.20
2010,06,04,14,13,32.20
2010,06,04,14,14,33.80
2010,06,04,14,15,35.40
2010,06,04,14,16,35.40
2010,06,04,14,17,32.20
2010,06,04,14,18,30.60
2010,06,04,14,19,27.40
2010,06,04,14,20,27.40
2010,06,04,14,21,29.00
2010,06,04,14,22,29.00
2010,06,04,14,23,30.60
2010,06,04,14,24,35.40
2010,06,04,14,25,19.30
2010,06,04,14,26,20.90
2010,06,04,14,27,29.00
2010,06,04,14,28,24.20
2010,06,04,14,29,19.30
2010,06,04,14,30,20.90
2010,06,04,14,31,22.50
2010,06,04,14,32,35.40
2010,06,04,14,33,32.20
2010,06,04,14,34,33.80
2010,06,04,14,35,32.20
2010,06,04,14,36,24.20
2010,06,04,14,37,32.20
2010,06,04,14,38,29.00
2010,06,04,14,39,27.40
2010,06,04,14,40,17.70
2010,06,04,14,41,32.20
2010,06,04,14,42,17.70
2010,06,04,14,43,32.20
2010,06,04,14,44,19.30
2010,06,04,14,45,33.80
2010,06,04,14,46,30.60
2010,06,04,14,47,29.00
2010,06,04,14,48,25.70
2010,06,04,14,49,24.20
2010,06,04,14,50,22.50
2010,06,04,14,51,24.20
2010,06,04,14,52,22.50
2010,06,04,14,53,37.00
2010,06,04,14,54,37.00
2010,06,04,14,55,29.00
2010,06,04,14,56,37.00
2010,06,04,14,57,22.50
2010,06,04,14,58,9.60
2010,06,04,14,59,20.90
2010,06,04,15,00,24.20
2010,06,04,15,01,38.60
2010,06,04,15,02,40.20
2010,06,04,15,03,22.50
2010,06,04,15,04,22.50
2010,06,04,15,05,30.60
2010,06,04,15,06,22.50
2010,06,04,15,07,27.40
2010,06,04,15,08,27.40
2010,06,04,15,09,30.60
2010,06,04,15,10,27.40
2010,06,04,15,11,20.90
2010,06,04,15,12,16.10
2010,06,04,15,13,32.20
2010,06,04,15,14,32.20
2010,06,04,15,15,33.80
2010,06,04,15,16,24.20
2010,06,04,15,17,24.20
2010,06,04,15,18,17.70
2010,06,04,15,19,33.80
2010,06,04,15,20,32.20
2010,06,04,15,21,30.60
2010,06,04,15,22,24.20
2010,06,04,15,23,22.50
2010,06,04,15,24,32.20
2010,06,04,15,25,14.50
2010,06,04,15,26,22.50
2010,06,04,15,27,20.90
2010,06,04,15,28,30.60
2010,06,04,15,29,19.30
2010,06,04,15,30,20.90
2010,06,04,15,31,29.00
2010,06,04,15,32,38.60
2010,06,04,15,33,30.60
2010,06,04,15,34,41.80
2010,06,04,15,35,35.40
2010,06,04,15,36,35.40
2010,06,04,15,37,16.10
2010,06,04,15,38,30.60
2010,06,04,15,39,43.50
2010,06,04,15,40,40.20
2010,06,04,15,41,38.60
2010,06,04,15,42,33.80
2010,06,04,15,43,33.80
2010,06,04,15,44,19.30
2010,06,04,15,45,22.50
2010,06,04,15,46,35.40
2010,06,04,15,47,29.00
2010,06,04,15,48,30.60
2010,06,04,15,49,48.30
2010,06,04,15,50,40.20
2010,06,04,15,51,30.60
2010,06,04,15,52,43.50
2010,06,04,15,53,40.20
2010,06,04,15,54,38.60
2010,06,04,15,55,29.00
2010,06,04,15,56,25.70
2010,06,04,15,57,33.80
2010,06,04,15,58,37.00
2010,06,04,15,59,27.40
2010,06,04,16,00,32.20
2010,06,04,16,01,25.70
2010,06,04,16,02,33.80
2010,06,04,16,03,29.00
2010,06,04,16,04,30.60
2010,06,04,16,05,27.40
2010,06,04,16,06,32.20
2010,06,04,16,07,25.70
2010,06,04,16,08,33.80
2010,06,04,16,09,30.60
2010,06,04,16,10,17.70
2010,06,04,16,11,32.20
2010,06,04,16,12,25.70
2010,06,04,16,13,27.40
2010,06,04,16,14,25.70
2010,06,04,16,15,24.20
2010,06,04,16,16,33.80
2010,06,04,16,17,35.40
2010,06,04,16,18,38.60
2010,06,04,16,19,25.70
2010,06,04,16,20,25.70
2010,06,04,16,21,25.70
2010,06,04,16,22,29.00
2010,06,04,16,23,37.00
2010,06,04,16,24,24.20
2010,06,04,16,25,37.00
2010,06,04,16,26,29.00
2010,06,04,16,27,33.80
2010,06,04,16,28,38.60
2010,06,04,16,29,25.70
2010,06,04,16,30,27.40
2010,06,04,16,31,30.60
2010,06,04,16,32,27.40
2010,06,04,16,33,30.60
2010,06,04,16,34,29.00
2010,06,04,16,35,20.90
2010,06,04,16,36,22.50
2010,06,04,16,37,22.50
2010,06,04,16,38,30.60
2010,06,04,16,39,24.20
2010,06,04,16,40,25.70
2010,06,04,16,41,25.70
2010,06,04,16,42,27.40
2010,06,04,16,43,33.80
2010,06,04,16,44,29.00
2010,06,04,16,45,33.80
2010,06,04,16,46,22.50
2010,06,04,16,47,22.50
2010,06,04,16,48,24.20
2010,06,04,16,49,24.20
2010,06,04,16,50,20.90
2010,06,04,16,51,22.50
2010,06,04,16,52,27.40
2010,06,04,16,53,30.60
2010,06,04,16,54,33.80
2010,06,04,16,55,32.20
2010,06,04,16,56,24.20
2010,06,04,16,57,24.20
2010,06,04,16,58,19.30
2010,06,04,16,59,24.20
2010,06,04,17,00,27.40
2010,06,04,17,01,25.70
2010,06,04,17,02,30.60
2010,06,04,17,03,30.60
2010,06,04,17,04,27.40
2010,06,04,17,05,33.80
2010,06,04,17,06,22.50
2010,06,04,17,07,22.50
2010,06,04,17,08,22.50
2010,06,04,17,09,20.90
2010,06,04,17,10,30.60
2010,06,04,17,11,35.40
2010,06,04,17,12,30.60
2010,06,04,17,13,30.60
2010,06,04,17,14,30.60
2010,06,04,17,15,33.80
2010,06,04,17,16,30.60
2010,06,04,17,17,22.50
2010,06,04,17,18,35.40
2010,06,04,17,19,29.00
2010,06,04,17,20,37.00
2010,06,04,17,21,25.70
2010,06,04,17,22,35.40
2010,06,04,17,23,38.60
2010,06,04,17,24,24.20
2010,06,04,17,25,33.80
2010,06,04,17,26,25.70
2010,06,04,17,27,19.30
2010,06,04,17,28,46.70
2010,06,04,17,29,32.20
2010,06,04,17,30,45.10
2010,06,04,17,31,35.40
2010,06,04,17,32,35.40
2010,06,04,17,33,41.80
2010,06,04,17,34,32.20
2010,06,04,17,35,37.00
2010,06,04,17,36,37.00
2010,06,04,17,37,20.90
2010,06,04,17,38,17.70
2010,06,04,17,39,27.40
2010,06,04,17,40,37.00
2010,06,04,17,41,33.80
2010,06,04,17,42,38.60
2010,06,04,17,43,37.00
2010,06,04,17,44,45.10
2010,06,04,17,45,33.80
2010,06,04,17,46,37.00
2010,06,04,17,47,32.20
2010,06,04,17,48,38.60
2010,06,04,17,49,38.60
2010,06,04,17,50,51.50
2010,06,04,17,51,30.60
2010,06,04,17,52,27.40
2010,06,04,17,53,37.00
2010,06,04,17,54,43.50
2010,06,04,17,55,33.80
2010,06,04,17,56,22.50
2010,06,04,17,57,29.00
2010,06,04,17,58,40.20
2010,06,04,17,59,48.30
2010,06,04,18,00,41.80
2010,06,04,18,01,41.80
2010,06,04,18,02,37.00
2010,06,04,18,03,20.90
2010,06,04,18,04,49.90
2010,06,04,18,05,37.00
2010,06,04,18,06,30.60
2010,06,04,18,07,30.60
2010,06,04,18,08,35.40
2010,06,04,18,09,37.00
2010,06,04,18,10,38.60
2010,06,04,18,11,32.20
2010,06,04,18,12,40.20
2010,06,04,18,13,37.00
2010,06,04,18,14,17.70
2010,06,04,18,15,46.70
2010,06,04,18,16,32.20
2010,06,04,18,17,38.60
2010,06,04,18,18,30.60
2010,06,04,18,19,20.90
2010,06,04,18,20,32.20
2010,06,04,18,21,27.40
2010,06,04,18,22,33.80
2010,06,04,18,23,25.70
2010,06,04,18,24,27.40
2010,06,04,18,25,41.80
2010,06,04,18,26,41.80
2010,06,04,18,27,17.70
2010,06,04,18,28,19.30
2010,06,04,18,29,35.40
2010,06,04,18,30,40.20
2010,06,04,18,31,40.20
2010,06,04,18,32,41.80
2010,06,04,18,33,29.00
2010,06,04,18,34,35.40
2010,06,04,18,35,41.80
2010,06,04,18,36,41.80
2010,06,04,18,37,53.10
2010,06,04,18,38,40.20
2010,06,04,18,39,43.50
2010,06,04,18,40,40.20
2010,06,04,18,41,41.80
2010,06,04,18,42,40.20
2010,06,04,18,43,33.80
2010,06,04,18,44,46.70
2010,06,04,18,45,38.60
2010,06,04,18,46,35.40
2010,06,04,18,47,40.20
2010,06,04,18,48,37.00
2010,06,04,18,49,30.60
2010,06,04,18,50,35.40
2010,06,04,18,51,33.80
2010,06,04,18,52,27.40
2010,06,04,18,53,22.50
2010,06,04,18,54,38.60
2010,06,04,18,55,27.40
2010,06,04,18,56,25.70
2010,06,04,18,57,25.70
2010,06,04,18,58,30.60
2010,06,04,18,59,32.20
2010,06,04,19,00,38.60
2010,06,04,19,01,27.40
2010,06,04,19,02,33.80
2010,06,04,19,03,30.60
2010,06,04,19,04,29.00
2010,06,04,19,05,33.80
2010,06,04,19,06,30.60
2010,06,04,19,07,32.20
2010,06,04,19,08,46.70
2010,06,04,19,09,38.60
2010,06,04,19,10,35.40
2010,06,04,19,11,32.20
2010,06,04,19,12,29.00
2010,06,04,19,13,38.60
2010,06,04,19,14,37.00
2010,06,04,19,15,43.50
2010,06,04,19,16,38.60
2010,06,04,19,17,33.80
2010,06,04,19,18,38.60
2010,06,04,19,19,29.00
2010,06,04,19,20,25.70
2010,06,04,19,21,33.80
2010,06,04,19,22,41.80
2010,06,04,19,23,29.00
2010,06,04,19,24,35.40
2010,06,04,19,25,41.80
2010,06,04,19,26,40.20
2010,06,04,19,27,33.80
2010,06,04,19,28,45.10
2010,06,04,19,29,38.60
2010,06,04,19,30,30.60
2010,06,04,19,31,37.00
2010,06,04,19,32,30.60
2010,06,04,19,33,41.80
2010,06,04,19,34,35.40
2010,06,04,19,35,37.00
2010,06,04,19,36,32.20
2010,06,04,19,37,41.80
2010,06,04,19,38,25.70
2010,06,04,19,39,40.20
2010,06,04,19,40,25.70
2010,06,04,19,41,30.60
2010,06,04,19,42,30.60
2010,06,04,19,43,24.20
2010,06,04,19,44,32.20
2010,06,04,19,45,29.00
2010,06,04,19,46,27.40
2010,06,04,19,47,27.40
2010,06,04,19,48,35.40
2010,06,04,19,49,22.50
2010,06,04,19,50,24.20
2010,06,04,19,51,29.00
2010,06,04,19,52,22.50
2010,06,04,19,53,16.10
2010,06,04,19,54,27.40
2010,06,04,19,55,20.90
2010,06,04,19,56,20.90
2010,06,04,19,57,32.20
2010,06,04,19,58,30.60
2010,06,04,19,59,24.20
2010,06,04,20,00,24.20
2010,06,04,20,01,24.20
2010,06,04,20,02,35.40
2010,06,04,20,03,30.60
2010,06,04,20,04,22.50
2010,06,04,20,05,19.30
2010,06,04,20,06,19.30
2010,06,04,20,07,17.70
2010,06,04,20,08,30.60
2010,06,04,20,09,24.20
2010,06,04,20,10,24.20
2010,06,04,20,11,33.80
2010,06,04,20,12,29.00
2010,06,04,20,13,35.40
2010,06,04,20,14,43.50
2010,06,04,20,15,41.80
2010,06,04,20,16,37.00
2010,06,04,20,17,30.60
2010,06,04,20,18,33.80
2010,06,04,20,19,29.00
2010,06,04,20,20,32.20
2010,06,04,20,21,29.00
2010,06,04,20,22,29.00
2010,06,04,20,23,27.40
2010,06,04,20,24,17.70
2010,06,04,20,25,20.90
2010,06,04,20,26,29.00
2010,06,04,20,27,20.90
2010,06,04,20,28,16.10
2010,06,04,20,29,20.90
2010,06,04,20,30,29.00
2010,06,04,20,31,35.40
2010,06,04,20,32,19.30
2010,06,04,20,33,32.20
2010,06,04,20,34,37.00
2010,06,04,20,35,24.20
2010,06,04,20,36,24.20
2010,06,04,20,37,27.40
2010,06,04,20,38,30.60
2010,06,04,20,39,35.40
2010,06,04,20,40,37.00
2010,06,04,20,41,41.80
2010,06,04,20,42,22.50
2010,06,04,20,43,37.00
2010,06,04,20,44,25.70
2010,06,04,20,45,25.70
2010,06,04,20,46,33.80
2010,06,04,20,47,32.20
2010,06,04,20,48,24.20
2010,06,04,20,49,19.30
2010,06,04,20,50,33.80
2010,06,04,20,51,24.20
2010,06,04,20,52,27.40
2010,06,04,20,53,17.70
2010,06,04,20,54,19.30
2010,06,04,20,55,30.60
2010,06,04,20,56,27.40
2010,06,04,20,57,24.20
2010,06,04,20,58,25.70
2010,06,04,20,59,17.70
2010,06,04,21,00,32.20
2010,06,04,21,01,17.70
2010,06,04,21,02,19.30
2010,06,04,21,03,16.10
2010,06,04,21,04,16.10
2010,06,04,21,05,24.20
2010,06,04,21,06,17.70
2010,06,04,21,07,20.90
2010,06,04,21,08,17.70
2010,06,04,21,09,19.30
2010,06,04,21,10,16.10
2010,06,04,21,11,17.70
2010,06,04,21,12,22.50
2010,06,04,21,13,29.00
2010,06,04,21,14,19.30
2010,06,04,21,15,19.30
2010,06,04,21,16,30.60
2010,06,04,21,17,20.90
2010,06,04,21,18,22.50
2010,06,04,21,19,14.50
2010,06,04,21,20,11.30
2010,06,04,21,21,20.90
2010,06,04,21,22,24.20
2010,06,04,21,23,24.20
2010,06,04,21,24,22.50
2010,06,04,21,25,27.40
2010,06,04,21,26,24.20
2010,06,04,21,27,25.70
2010,06,04,21,28,29.00
2010,06,04,21,29,24.20
2010,06,04,21,30,22.50
2010,06,04,21,31,30.60
2010,06,04,21,32,24.20
2010,06,04,21,33,22.50
2010,06,04,21,34,25.70
2010,06,04,21,35,20.90
2010,06,04,21,36,22.50
2010,06,04,21,37,32.20